Location: Donzy-le-Pr�
(47.3659°N, 3.1107°E)
Time: 19:42:30
(UTC+00:00)

Cosmos 1066 Rocket - Pass Details

Date: 03 March 2021
Orbit: 799 x 894 km, 81.2° (Epoch: 22 April)

Event Time Altitude Azimuth Distance (km) Brightness Sun altitude
Rises 19:35:06 0° 350° (N) 3,438 7.7 -20.9°
Reaches altitude 10° 19:37:32 10° 353° (N) 2,511 6.9 -21.3°
Maximum altitude 19:43:15 70° 77° (ENE) 930 4.2 -22.2°
Enters shadow 19:45:35 37° 151° (SSE) 1,340 4.9 -22.6°
